Location: La Brionne
(46.1728°N, 1.7849°E)
Time: 18:32:55
(UTC+00:00)

USA 215 - Pass Details

Date: 28 October 2021
Orbit: 1099 x 1109 km, 123.0° (Epoch: 20 November)

Event Time Altitude Azimuth Distance (km) Brightness Sun altitude
Exits shadow 19:45:36 35° 16° (NNE) 1,703 4.2 -31.8°
Maximum altitude 19:47:08 40° 345° (NNW) 1,574 4.2 -32.0°
Drops below altitude 10° 19:53:07 10° 279° (W) 2,963 6.3 -33.0°
Sets 19:55:45 0° 272° (W) 3,922 7.2 -33.5°
